Location: Orlando
(28.5380°N, 81.3790°W)
Time: 18:17:26
(UTC-04:00)

Hubble Space Telescope - Visible Passes

Search period start: 18 March 2019 00:00
Search period end: 28 March 2019 00:00
Orbit: 537 x 540 km, 28.5° (Epoch: 17 March)

Date Brightness Start Highest point End Pass type
(mag) Time Alt. Az. Time Alt. Az. Time Alt. Az.
18 Mar 2.8 06:40:22 12° SW 06:41:33 13° SSW 06:43:25 10° S visible
21 Mar 3.0 21:30:52 10° SW 21:31:59 16° SSW 21:31:59 16° SSW visible
22 Mar 2.2 21:20:08 10° SW 21:22:33 27° SSW 21:22:33 27° SSW visible
23 Mar 1.4 21:09:29 10° SW 21:13:02 41° S 21:13:02 41° S visible
24 Mar 1.0 20:58:52 10° WSW 21:02:53 51° SSE 21:03:28 47° SE visible
25 Mar 0.9 20:48:19 10° WSW 20:52:23 60° SSE 20:53:49 36° ESE visible
26 Mar 0.8 20:37:47 10° WSW 20:41:55 69° SSE 20:44:06 26° E visible
26 Mar 3.8 22:18:58 10° W 22:19:27 13° W 22:19:27 13° W visible
27 Mar 0.7 20:27:18 10° WSW 20:31:25 78° S 20:34:20 19° E visible
27 Mar 3.4 22:08:30 10° W 22:09:41 18° W 22:09:41 18° W visible
